Location: Hylvaty SDH
(49.9612°N, 16.4057°E)
Time: 12:43:34
(UTC+01:00)

A-11 Canister half - Pass Details

Date: 11 October 2020
Orbit: 1526 x 1683 km, 47.3° (Epoch: 28 October)

Event Time Altitude Azimuth Distance (km) Brightness Sun altitude
Rises 20:19:58 0° 231° (SW) 4,688 12.1 -21.5°
Reaches altitude 10° 20:23:05 10° 227° (SW) 3,697 11.4 -21.9°
Maximum altitude 20:32:02 55° 153° (SSE) 1,789 9.0 -23.3°
Enters shadow 20:35:21 39° 101° (E) 2,166 9.2 -23.8°
Drops below altitude 10° 20:41:00 10° 80° (E) 3,715 - -24.7°
Sets 20:44:09 0° 76° (ENE) 4,713 - -25.2°
